{"data":{"norad_id":69889,"epoch":"2026-09-20T03:28:27.233760Z","epoch_age_seconds":52349,"freshness":"FRESH","line1":"1 69889U 26156W   26263.14475965  .00001786  00000+0  18334-3 0  9993","line2":"2 69889  97.7465 162.3264 0003868 254.4421 105.6371 14.91628380 11154","mean_motion":14.9162838,"eccentricity":0.0003868,"inclination_deg":97.7465,"raan_deg":162.3264,"arg_perigee_deg":254.4421,"mean_anomaly_deg":105.6371,"bstar":0.00018334,"rev_number":1115,"period_min":96.538790714079,"perigee_km":590.16127037033,"apogee_km":595.55403183243,"semimajor_km":6970.9946511014,"source":"CELESTRAK","updated_at":"2026-09-20T09:00:25.168178Z"}}